Regional Weather Roundup
Issued by NWS

Home | Current Version | Previous Version | Graphics & Text | Print | Product List | Glossary Off
Versions: 1 2 3 4 5 6 7 8 9 10 11 12 13 14 15 16 17 18 19 20 21 22 23 24 25 26 27 28 29 30 31 32 33 34 35 36 37 38 39 40 41 42 43 44 45 46 47 48 49 50

000
ASUS43 KLSX 290010
RWRMO

WEATHER SUMMARY FOR MISSOURI
NATIONAL WEATHER SERVICE SPRINGFIELD MO
700 PM CDT FRI APR 28 2017

NOTE: "FAIR" INDICATES FEW OR NO CLOUDS BELOW 12,000 FEET WITH NO
       SIGNIFICANT WEATHER AND/OR OBSTRUCTIONS TO VISIBILITY.
       CURRENT SKY AND/OR WEATHER CONDITIONS ARE NOT AVAILABLE FOR
       CHILLICOTHE AND FARMINGTON.

MOZ001>031-035>038-043-044-053-054-290100-
...NORTHERN AND WESTERN MISSOURI...

CITY           SKY/WX    TMP DP  RH WIND       PRES   REMARKS
KANSAS CTY INT CLOUDY    49  48  97 N13       29.78R
6HR MIN TEMP:  49; 6HR MAX TEMP:  58; 6HR PCP:  0.02;

KANSAS C DTWN  CLOUDY    55  52  89 N13       29.77R
6HR MIN TEMP:  55; 6HR MAX TEMP:  66; 6HR PCP: TRACE;

LEE`S SUMMIT   MOSUNNY   59  57  93 N12       29.77R
6HR MIN TEMP:  60; 6HR MAX TEMP:  64; 6HR PCP: TRACE;

ST JOSEPH      CLOUDY    46  45  96 N15       29.83R
6HR MIN TEMP:  46; 6HR MAX TEMP:  48; 6HR PCP:  0.02;

CHILLICOTHE      N/A     47  45  93 N8        29.82R
6HR MIN TEMP:  47; 6HR MAX TEMP:  53;

KIRKSVILLE     CLOUDY    48  31  51 N13       29.84R HAZE
6HR MIN TEMP:  48; 6HR MAX TEMP:  51;


$$
MOZ066>068-077>081-088>096-101>105-290100-
...SOUTHWEST MISSOURI...

CITY           SKY/WX    TMP DP  RH WIND       PRES   REMARKS
SPRINGFIELD    CLOUDY    64  61  90 SE7       29.75S
6HR MIN TEMP:  61; 6HR MAX TEMP:  64;

JOPLIN         MOSUNNY   69  62  78 VRB5      29.73R
6HR MIN TEMP:  65; 6HR MAX TEMP:  71;

BRANSON        CLOUDY    64  64 100 CALM      29.77R FOG

$$
MOZ032>034-039>042-045>050-055>058-069>072-290100-
...CENTRAL MISSOURI...

CITY           SKY/WX    TMP DP  RH WIND       PRES   REMARKS
COLUMBIA       CLOUDY    59  58  96 SE6       29.79R
6HR MIN TEMP:  57; 6HR MAX TEMP:  61;

JEFFERSON CITY CLOUDY    61  58  90 SE6       29.79R
6HR MIN TEMP:  60; 6HR MAX TEMP:  62;

ROLLA          CLOUDY    60  60 100 CALM      29.78R
6HR MIN TEMP:  56; 6HR MAX TEMP:  60; 6HR PCP:  0.01;

SEDALIA        CLOUDY    61  61 100 E6        29.78R FOG
6HR MIN TEMP:  60; 6HR MAX TEMP:  63;

WHITEMAN AFB   CLOUDY    61  61 100 S5        29.75R
OSAGE BEACH    CLOUDY    62  61  96 CALM      29.78R

$$
MOZ051-052-059>065-290100-
...EAST CENTRAL MISSOURI...

CITY           SKY/WX    TMP DP  RH WIND       PRES   REMARKS
ST LOUIS INTL  NOT AVBL
SPIRIT OF STL  CLOUDY    59  57  93 E3        29.79R
6HR MIN TEMP:  56; 6HR MAX TEMP:  59; 6HR PCP:  0.22;

ST CHARLES     CLOUDY    59  58  96 SE7       29.80R
6HR MIN TEMP:  55; 6HR MAX TEMP:  59; 6HR PCP:  0.38;


$$
MOZ072>076-082>087-097>100-106>115-290100-
...SOUTH CENTRAL AND SOUTHEAST MISSOURI...

CITY           SKY/WX    TMP DP  RH WIND       PRES   REMARKS
CAPE GIRARDEAU LGT RAIN  70  68  93 CALM      29.77S FOG
6HR MIN TEMP:  65; 6HR MAX TEMP:  74; 6HR PCP:  0.08;

FARMINGTON     CLOUDY    64  63  96 W3        29.80R
6HR MIN TEMP:  61; 6HR MAX TEMP:  67;

POPLAR BLUFF   CLOUDY    68  67  96 CALM      29.76S
6HR MIN TEMP:  65; 6HR MAX TEMP:  71; 6HR PCP: TRACE;

WEST PLAINS    CLOUDY    65  63  93 S3        29.79R
6HR MIN TEMP:  61; 6HR MAX TEMP:  65; 6HR PCP:  0.02;


$$




USA.gov is the U.S. government's official web portal to all federal, state and local government web resources and services.